Location: Prairie State College
(41.5244°N, 87.6382°W)
Time: 14:13:41
(UTC-05:00)

Cosmos 1140 Rocket - Visible Passes

Search period start: 27 July 2016 00:00
Search period end: 06 August 2016 00:00
Orbit: 746 x 767 km, 74.1° (Epoch: 27 July)

Date Brightness Start Highest point End Pass type
(mag) Time Alt. Az. Time Alt. Az. Time Alt. Az.
27 Jul 3.8 22:11:23 10° NNW 22:16:26 59° WSW 22:19:07 27° S visible
28 Jul 3.4 21:30:49 10° NNW 21:35:58 75° ENE 21:39:36 20° SSE visible
28 Jul 5.9 23:15:01 10° WNW 23:17:03 12° W 23:19:05 10° WSW visible
29 Jul 4.1 20:50:30 10° N 20:55:22 41° ENE 21:00:06 11° SE visible
29 Jul 5.3 22:32:52 10° NW 22:36:54 23° W 22:40:09 13° SW visible
30 Jul 4.4 21:51:45 10° NNW 21:56:37 43° WSW 22:00:43 14° S visible
31 Jul 3.5 21:11:03 10° NNW 21:16:13 82° WSW 21:21:19 10° SSE visible
01 Aug 3.7 20:30:37 10° N 20:35:41 55° ENE 20:40:44 10° SE visible
01 Aug 5.8 22:13:39 10° NW 22:17:00 18° W 22:20:19 10° SW visible
02 Aug 5.0 21:32:13 10° NW 21:36:46 32° W 21:41:19 10° SSW visible
03 Aug 4.0 20:51:21 10° NNW 20:56:26 61° WSW 21:01:31 10° S visible
04 Aug 6.1 21:54:51 10° WNW 21:57:03 13° W 21:59:16 10° WSW visible
05 Aug 5.6 21:12:48 10° NW 21:16:54 24° W 21:21:00 10° SSW visible
